| time (UTC) | temp F | wind direction | speed MPH | gust MPH | rain 1hr in | rain 24hr in | rain mn in | humidity % | barometer mb |
| 20260904171106 | 68 | 300 | 3.0 | 5.0 | 0.00 | 0.00 | 0.00 | 59 | 1013.9 |
| 20260904170605 | 68 | 288 | 3.0 | 5.0 | 0.00 | 0.00 | 0.00 | 59 | 1013.9 |
| 20260904170108 | 67 | 309 | 3.0 | 6.0 | 0.00 | 0.00 | 0.00 | 59 | 1013.7 |
| 20260904165604 | 67 | 291 | 2.0 | 6.0 | 0.00 | 0.00 | 0.00 | 60 | 1013.7 |
| 20260904165104 | 66 | 269 | 1.0 | 6.0 | 0.00 | 0.00 | 0.00 | 60 | 1013.7 |
| 20260904164604 | 66 | 269 | 2.0 | 5.0 | 0.00 | 0.00 | 0.00 | 61 | 1013.7 |
| 20260904164104 | 66 | 256 | 0.0 | 3.0 | 0.00 | 0.00 | 0.00 | 62 | 1013.7 |
| 20260904163604 | 65 | 256 | 2.0 | 5.0 | 0.00 | 0.00 | 0.00 | 63 | 1013.7 |
| 20260904163104 | 65 | 245 | 3.0 | 5.0 | 0.00 | 0.00 | 0.00 | 65 | 1013.7 |
| 20260904162604 | 65 | 292 | 1.0 | 3.0 | 0.00 | 0.00 | 0.00 | 66 | 1013.6 |
| 20260904162104 | 64 | 292 | 2.0 | 3.0 | 0.00 | 0.00 | 0.00 | 68 | 1013.5 |
| 20260904161603 | 64 | 292 | 1.0 | 3.0 | 0.00 | 0.00 | 0.00 | 68 | 1013.4 |
| 20260904161104 | 64 | 292 | 2.0 | 5.0 | 0.00 | 0.00 | 0.00 | 67 | 1013.3 |
| 20260904160604 | 63 | 292 | 1.0 | 5.0 | 0.00 | 0.00 | 0.00 | 69 | 1013.2 |
| 20260904160107 | 63 | 292 | 3.0 | 5.0 | 0.00 | 0.00 | 0.00 | 70 | 1013.1 |
| 20260904155604 | 63 | 299 | 2.0 | 3.0 | 0.00 | 0.00 | 0.00 | 71 | 1013.1 |
| 20260904154104 | 62 | 299 | 2.0 | 3.0 | 0.00 | 0.00 | 0.00 | 74 | 1013.2 |
| 20260904153604 | 62 | 299 | 2.0 | 3.0 | 0.00 | 0.00 | 0.00 | 73 | 1013.2 |
| 20260904153104 | 62 | 306 | 2.0 | 3.0 | 0.00 | 0.00 | 0.00 | 73 | 1013.2 |
| 20260904152103 | 62 | 306 | 1.0 | 3.0 | 0.00 | 0.00 | 0.00 | 75 | 1013.2 |
| 20260904151604 | 62 | 306 | 1.0 | 3.0 | 0.00 | 0.00 | 0.00 | 75 | 1013.2 |
| 20260904151104 | 62 | 306 | 0.0 | 2.0 | 0.00 | 0.00 | 0.00 | 74 | 1013.2 |
| 20260904150108 | 60 | 306 | 0.0 | 0.0 | 0.00 | 0.00 | 0.00 | 73 | 1013.2 |
| 20260904145604 | 60 | 306 | 0.0 | 0.0 | 0.00 | 0.00 | 0.00 | 73 | 1013.2 |
| 20260904145104 | 59 | 306 | 0.0 | 0.0 | 0.00 | 0.00 | 0.00 | 72 | 1013.2 |
| 20260904144603 | 58 | 306 | 0.0 | 0.0 | 0.00 | 0.00 | 0.00 | 71 | 1013.2 |
| 20260904144104 | 58 | 306 | 0.0 | 0.0 | 0.00 | 0.00 | 0.00 | 71 | 1013.2 |
| 20260904143603 | 58 | 306 | 0.0 | 0.0 | 0.00 | 0.00 | 0.00 | 71 | 1013.2 |
| 20260904143104 | 58 | 306 | 0.0 | 0.0 | 0.00 | 0.00 | 0.00 | 71 | 1013.2 |
| 20260904142604 | 57 | 306 | 0.0 | 0.0 | 0.00 | 0.00 | 0.00 | 69 | 1013.2 |
| 20260904142104 | 57 | 306 | 0.0 | 0.0 | 0.00 | 0.00 | 0.00 | 70 | 1013.2 |
| 20260904141604 | 57 | 306 | 0.0 | 0.0 | 0.00 | 0.00 | 0.00 | 70 | 1013.2 |
| 20260904140603 | 57 | 306 | 0.0 | 0.0 | 0.00 | 0.00 | 0.00 | 70 | 1013.0 |
| 20260904140105 | 57 | 306 | 0.0 | 0.0 | 0.00 | 0.00 | 0.00 | 69 | 1012.9 |
| 20260904135604 | 57 | 306 | 0.0 | 1.0 | 0.00 | 0.00 | 0.00 | 69 | 1012.9 |
| 20260904135104 | 57 | 306 | 0.0 | 1.0 | 0.00 | 0.00 | 0.00 | 69 | 1012.9 |
| 20260904134604 | 57 | 306 | 0.0 | 0.0 | 0.00 | 0.00 | 0.00 | 69 | 1012.7 |
| 20260904134104 | 57 | 303 | 0.0 | 0.0 | 0.00 | 0.00 | 0.00 | 69 | 1012.7 |
| 20260904133604 | 57 | 309 | 0.0 | 0.0 | 0.00 | 0.00 | 0.00 | 69 | 1012.7 |
| 20260904132605 | 57 | 309 | 0.0 | 0.0 | 0.00 | 0.00 | 0.00 | 69 | 1012.6 |
| 20260904132103 | 57 | 309 | 0.0 | 0.0 | 0.00 | 0.00 | 0.00 | 69 | 1012.7 |
| 20260904131604 | 57 | 309 | 0.0 | 1.0 | 0.00 | 0.00 | 0.00 | 69 | 1012.7 |
| 20260904131104 | 57 | 309 | 0.0 | 1.0 | 0.00 | 0.00 | 0.00 | 69 | 1012.6 |
| 20260904130605 | 57 | 309 | 0.0 | 1.0 | 0.00 | 0.00 | 0.00 | 69 | 1012.6 |
| 20260904130108 | 57 | 309 | 0.0 | 1.0 | 0.00 | 0.00 | 0.00 | 69 | 1012.6 |
| 20260904125603 | 57 | 309 | 0.0 | 1.0 | 0.00 | 0.00 | 0.00 | 69 | 1012.6 |
| 20260904125104 | 57 | 309 | 0.0 | 1.0 | 0.00 | 0.00 | 0.00 | 68 | 1012.6 |
| 20260904124603 | 57 | 309 | 0.0 | 1.0 | 0.00 | 0.00 | 0.00 | 68 | 1012.6 |
| 20260904123604 | 57 | 308 | 0.0 | 1.0 | 0.00 | 0.00 | 0.00 | 66 | 1012.5 |
| 20260904123104 | 57 | 308 | 0.0 | 1.0 | 0.00 | 0.00 | 0.00 | 66 | 1012.5 |
| 20260904122605 | 58 | 308 | 0.0 | 1.0 | 0.00 | 0.00 | 0.00 | 65 | 1012.6 |
| 20260904122105 | 58 | 308 | 0.0 | 1.0 | 0.00 | 0.00 | 0.00 | 65 | 1012.5 |
| 20260904121104 | 58 | 308 | 0.0 | 1.0 | 0.00 | 0.00 | 0.00 | 66 | 1012.5 |
| 20260904120109 | 59 | 308 | 0.0 | 1.0 | 0.00 | 0.00 | 0.00 | 65 | 1012.5 |
| 20260904115104 | 59 | 308 | 0.0 | 0.0 | 0.00 | 0.00 | 0.00 | 64 | 1012.6 |
| 20260904114104 | 59 | 308 | 0.0 | 0.0 | 0.00 | 0.00 | 0.00 | 65 | 1012.6 |
| 20260904113603 | 59 | 308 | 0.0 | 0.0 | 0.00 | 0.00 | 0.00 | 65 | 1012.6 |
| 20260904113103 | 59 | 308 | 0.0 | 0.0 | 0.00 | 0.00 | 0.00 | 65 | 1012.5 |
| 20260904112604 | 59 | 308 | 0.0 | 0.0 | 0.00 | 0.00 | 0.00 | 65 | 1012.5 |
| 20260904112103 | 59 | 308 | 0.0 | 1.0 | 0.00 | 0.00 | 0.00 | 65 | 1012.5 |
| 20260904111603 | 59 | 308 | 0.0 | 1.0 | 0.00 | 0.00 | 0.00 | 66 | 1012.5 |
| 20260904111104 | 59 | 308 | 0.0 | 1.0 | 0.00 | 0.00 | 0.00 | 66 | 1012.5 |
| 20260904110603 | 59 | 308 | 0.0 | 1.0 | 0.00 | 0.00 | 0.00 | 66 | 1012.4 |
| 20260904110108 | 59 | 308 | 0.0 | 1.0 | 0.00 | 0.00 | 0.00 | 66 | 1012.4 |
| 20260904105604 | 59 | 308 | 1.0 | 1.0 | 0.00 | 0.00 | 0.00 | 66 | 1012.4 |
| 20260904105104 | 59 | 308 | 0.0 | 0.0 | 0.00 | 0.00 | 0.00 | 66 | 1012.4 |
| 20260904104603 | 59 | 308 | 0.0 | 0.0 | 0.00 | 0.00 | 0.00 | 66 | 1012.4 |
| 20260904104104 | 59 | 308 | 0.0 | 0.0 | 0.00 | 0.00 | 0.00 | 66 | 1012.3 |
| 20260904103604 | 59 | 308 | 0.0 | 0.0 | 0.00 | 0.00 | 0.00 | 66 | 1012.3 |
| 20260904103104 | 59 | 308 | 0.0 | 1.0 | 0.00 | 0.00 | 0.00 | 66 | 1012.4 |
| 20260904102603 | 60 | 308 | 0.0 | 1.0 | 0.00 | 0.00 | 0.00 | 66 | 1012.3 |
| 20260904102103 | 60 | 308 | 0.0 | 0.0 | 0.00 | 0.00 | 0.00 | 66 | 1012.3 |
| 20260904101604 | 60 | 308 | 0.0 | 0.0 | 0.00 | 0.00 | 0.00 | 67 | 1012.3 |
| 20260904101104 | 60 | 308 | 0.0 | 0.0 | 0.00 | 0.00 | 0.00 | 66 | 1012.4 |
| 20260904100604 | 60 | 308 | 0.0 | 1.0 | 0.00 | 0.00 | 0.00 | 67 | 1012.4 |
| 20260904100104 | 60 | 308 | 0.0 | 1.0 | 0.00 | 0.00 | 0.00 | 67 | 1012.4 |
| 20260904095604 | 60 | 308 | 0.0 | 0.0 | 0.00 | 0.00 | 0.00 | 67 | 1012.3 |
| 20260904095104 | 60 | 308 | 0.0 | 0.0 | 0.00 | 0.00 | 0.00 | 68 | 1012.3 |
| 20260904094604 | 60 | 308 | 0.0 | 0.0 | 0.00 | 0.00 | 0.00 | 68 | 1012.3 |
| 20260904094104 | 60 | 308 | 0.0 | 0.0 | 0.00 | 0.00 | 0.00 | 69 | 1012.4 |
| 20260904093604 | 60 | 308 | 0.0 | 0.0 | 0.00 | 0.00 | 0.00 | 69 | 1012.5 |
| 20260904093106 | 60 | 308 | 0.0 | 0.0 | 0.00 | 0.00 | 0.00 | 69 | 1012.4 |
| 20260904092604 | 60 | 308 | 0.0 | 0.0 | 0.00 | 0.00 | 0.00 | 69 | 1012.4 |
| 20260904092104 | 61 | 308 | 0.0 | 0.0 | 0.00 | 0.00 | 0.00 | 69 | 1012.3 |
| 20260904091604 | 61 | 308 | 0.0 | 0.0 | 0.00 | 0.00 | 0.00 | 69 | 1012.3 |
| 20260904091104 | 61 | 308 | 0.0 | 0.0 | 0.00 | 0.00 | 0.00 | 70 | 1012.3 |
| 20260904090604 | 61 | 308 | 0.0 | 0.0 | 0.00 | 0.00 | 0.00 | 71 | 1012.3 |
| 20260904090112 | 61 | 308 | 0.0 | 0.0 | 0.00 | 0.00 | 0.00 | 71 | 1012.3 |
| 20260904085104 | 61 | 308 | 0.0 | 0.0 | 0.00 | 0.00 | 0.00 | 71 | 1012.5 |
| 20260904084604 | 61 | 308 | 0.0 | 0.0 | 0.00 | 0.00 | 0.00 | 71 | 1012.5 |
| 20260904084103 | 61 | 308 | 0.0 | 0.0 | 0.00 | 0.00 | 0.00 | 70 | 1012.5 |
| 20260904083104 | 61 | 308 | 0.0 | 1.0 | 0.00 | 0.00 | 0.00 | 70 | 1012.6 |
| 20260904082604 | 61 | 308 | 0.0 | 1.0 | 0.00 | 0.00 | 0.00 | 70 | 1012.6 |
| 20260904081604 | 61 | 308 | 0.0 | 1.0 | 0.00 | 0.00 | 0.00 | 71 | 1012.6 |
| 20260904081104 | 61 | 308 | 0.0 | 1.0 | 0.00 | 0.00 | 0.00 | 71 | 1012.6 |
| 20260904080604 | 62 | 308 | 0.0 | 1.0 | 0.00 | 0.00 | 0.00 | 71 | 1012.7 |
| 20260904080105 | 62 | 308 | 0.0 | 1.0 | 0.00 | 0.00 | 0.00 | 72 | 1012.7 |
| 20260904075605 | 62 | 308 | 0.0 | 0.0 | 0.00 | 0.00 | 0.00 | 72 | 1012.8 |
| 20260904075104 | 62 | 308 | 0.0 | 0.0 | 0.00 | 0.00 | 0.00 | 72 | 1012.8 |
| 20260904074604 | 62 | 308 | 0.0 | 0.0 | 0.00 | 0.00 | 0.00 | 72 | 1012.8 |
| 20260904074104 | 62 | 308 | 0.0 | 1.0 | 0.00 | 0.00 | 0.00 | 72 | 1012.9 |
| 20260904073604 | 62 | 308 | 0.0 | 1.0 | 0.00 | 0.00 | 0.00 | 72 | 1012.9 |
| 20260904073103 | 62 | 308 | 0.0 | 1.0 | 0.00 | 0.00 | 0.00 | 72 | 1013.0 |
| 20260904072104 | 62 | 308 | 0.0 | 1.0 | 0.00 | 0.00 | 0.00 | 72 | 1013.0 |
| 20260904071105 | 62 | 308 | 0.0 | 1.0 | 0.00 | 0.00 | 0.00 | 72 | 1012.8 |
| 20260904070605 | 62 | 308 | 0.0 | 1.0 | 0.00 | 0.00 | 0.00 | 72 | 1012.7 |
| 20260904070108 | 62 | 308 | 0.0 | 1.0 | 0.00 | 0.00 | 0.00 | 71 | 1012.7 |
| 20260904065104 | 62 | 308 | 0.0 | 0.0 | 0.00 | 0.00 | 0.00 | 71 | 1012.8 |
| 20260904064604 | 62 | 308 | 0.0 | 0.0 | 0.00 | 0.00 | 0.00 | 71 | 1012.7 |
| 20260904063603 | 63 | 308 | 0.0 | 0.0 | 0.00 | 0.00 | 0.00 | 70 | 1012.7 |
| 20260904062604 | 63 | 308 | 0.0 | 1.0 | 0.00 | 0.00 | 0.00 | 69 | 1012.8 |
| 20260904062104 | 63 | 308 | 0.0 | 0.0 | 0.00 | 0.00 | 0.00 | 69 | 1012.7 |
| 20260904061604 | 63 | 308 | 0.0 | 0.0 | 0.00 | 0.00 | 0.00 | 69 | 1012.7 |
| 20260904061104 | 64 | 308 | 0.0 | 2.0 | 0.00 | 0.00 | 0.00 | 69 | 1012.7 |
| 20260904060604 | 64 | 308 | 0.0 | 2.0 | 0.00 | 0.00 | 0.00 | 69 | 1012.8 |
| 20260904055604 | 64 | 308 | 1.0 | 2.0 | 0.00 | 0.00 | 0.00 | 69 | 1013.0 |
| 20260904055104 | 64 | 307 | 0.0 | 1.0 | 0.00 | 0.00 | 0.00 | 69 | 1013.0 |
| 20260904054604 | 64 | 307 | 0.0 | 0.0 | 0.00 | 0.00 | 0.00 | 70 | 1013.1 |
| 20260904054104 | 64 | 307 | 0.0 | 0.0 | 0.00 | 0.00 | 0.00 | 70 | 1013.1 |
| 20260904053604 | 64 | 307 | 0.0 | 0.0 | 0.00 | 0.00 | 0.00 | 69 | 1013.1 |
| 20260904053104 | 64 | 307 | 0.0 | 0.0 | 0.00 | 0.00 | 0.00 | 70 | 1013.1 |
| 20260904052104 | 64 | 307 | 0.0 | 2.0 | 0.00 | 0.00 | 0.00 | 69 | 1013.1 |
| 20260904051604 | 64 | 307 | 0.0 | 3.0 | 0.00 | 0.00 | 0.00 | 69 | 1013.1 |
| 20260904051104 | 65 | 307 | 1.0 | 3.0 | 0.00 | 0.00 | 0.00 | 69 | 1013.1 |
| 20260904050606 | 65 | 307 | 1.0 | 3.0 | 0.00 | 0.00 | 0.00 | 69 | 1013.1 |
| 20260904050105 | 65 | 307 | 1.0 | 2.0 | 0.00 | 0.00 | 0.00 | 69 | 1013.1 |
| 20260904045608 | 65 | 307 | 1.0 | 3.0 | 0.00 | 0.00 | 0.00 | 68 | 1013.1 |
| 20260904044603 | 65 | 307 | 1.0 | 3.0 | 0.00 | 0.00 | 0.00 | 68 | 1013.1 |
| 20260904044104 | 65 | 307 | 1.0 | 3.0 | 0.00 | 0.00 | 0.00 | 67 | 1013.0 |
| 20260904043104 | 66 | 307 | 2.0 | 3.0 | 0.00 | 0.00 | 0.00 | 67 | 1012.9 |
| 20260904042604 | 66 | 308 | 1.0 | 3.0 | 0.00 | 0.00 | 0.00 | 66 | 1012.9 |
| 20260904042104 | 66 | 308 | 1.0 | 3.0 | 0.00 | 0.00 | 0.00 | 66 | 1012.9 |
| 20260904041604 | 66 | 308 | 2.0 | 3.0 | 0.00 | 0.00 | 0.00 | 66 | 1012.9 |
| 20260904041106 | 67 | 308 | 1.0 | 5.0 | 0.00 | 0.00 | 0.00 | 66 | 1012.7 |
| 20260904040604 | 67 | 308 | 1.0 | 5.0 | 0.00 | 0.00 | 0.00 | 65 | 1012.6 |
| 20260904040105 | 67 | 306 | 3.0 | 5.0 | 0.00 | 0.00 | 0.00 | 65 | 1012.6 |
| 20260904035604 | 67 | 296 | 2.0 | 3.0 | 0.00 | 0.00 | 0.00 | 64 | 1012.6 |
| 20260904035104 | 67 | 296 | 1.0 | 5.0 | 0.00 | 0.00 | 0.00 | 64 | 1012.5 |
| 20260904034604 | 67 | 296 | 2.0 | 5.0 | 0.00 | 0.00 | 0.00 | 64 | 1012.5 |
| 20260904034104 | 68 | 294 | 3.0 | 5.0 | 0.00 | 0.00 | 0.00 | 63 | 1012.5 |
| 20260904033604 | 68 | 292 | 2.0 | 5.0 | 0.00 | 0.00 | 0.00 | 62 | 1012.5 |
| 20260904033104 | 68 | 292 | 2.0 | 5.0 | 0.00 | 0.00 | 0.00 | 62 | 1012.5 |
| 20260904032604 | 68 | 291 | 2.0 | 3.0 | 0.00 | 0.00 | 0.00 | 61 | 1012.4 |
| 20260904032104 | 69 | 290 | 2.0 | 3.0 | 0.00 | 0.00 | 0.00 | 61 | 1012.4 |
| 20260904031604 | 69 | 290 | 1.0 | 3.0 | 0.00 | 0.00 | 0.00 | 60 | 1012.3 |
| 20260904031104 | 69 | 288 | 1.0 | 3.0 | 0.00 | 0.00 | 0.00 | 59 | 1012.2 |
| 20260904030104 | 69 | 277 | 2.0 | 3.0 | 0.00 | 0.00 | 0.00 | 58 | 1011.9 |
| 20260904025615 | 70 | 304 | 2.0 | 3.0 | 0.00 | 0.00 | 0.00 | 58 | 1011.9 |
| 20260904025104 | 70 | 295 | 1.0 | 3.0 | 0.00 | 0.00 | 0.00 | 57 | 1011.9 |
| 20260904024604 | 70 | 306 | 1.0 | 3.0 | 0.00 | 0.00 | 0.00 | 57 | 1011.9 |
| 20260904024104 | 70 | 299 | 1.0 | 3.0 | 0.00 | 0.00 | 0.00 | 56 | 1011.8 |
| 20260904023604 | 70 | 288 | 1.0 | 3.0 | 0.00 | 0.00 | 0.00 | 56 | 1011.9 |
| 20260904023104 | 71 | 264 | 1.0 | 2.0 | 0.00 | 0.00 | 0.00 | 55 | 1011.8 |
| 20260904022606 | 71 | 263 | 0.0 | 2.0 | 0.00 | 0.00 | 0.00 | 54 | 1011.8 |
| 20260904022104 | 72 | 263 | 1.0 | 3.0 | 0.00 | 0.00 | 0.00 | 53 | 1011.8 |
| 20260904021604 | 72 | 277 | 1.0 | 3.0 | 0.00 | 0.00 | 0.00 | 52 | 1011.9 |
| 20260904020105 | 74 | 243 | 1.0 | 3.0 | 0.00 | 0.00 | 0.00 | 49 | 1011.9 |
| 20260904015604 | 75 | 271 | 1.0 | 5.0 | 0.00 | 0.00 | 0.00 | 47 | 1011.9 |
| 20260904015104 | 76 | 270 | 2.0 | 5.0 | 0.00 | 0.00 | 0.00 | 45 | 1011.8 |
| 20260904014104 | 77 | 276 | 2.0 | 5.0 | 0.00 | 0.00 | 0.00 | 43 | 1011.7 |
| 20260904013606 | 77 | 234 | 1.0 | 7.0 | 0.00 | 0.00 | 0.00 | 42 | 1011.7 |
| 20260904013104 | 78 | 183 | 3.0 | 7.0 | 0.00 | 0.00 | 0.00 | 41 | 1011.7 |
| 20260904012603 | 78 | 219 | 3.0 | 7.0 | 0.00 | 0.00 | 0.00 | 40 | 1011.6 |
| 20260904011604 | 79 | 231 | 3.0 | 8.0 | 0.00 | 0.00 | 0.00 | 39 | 1011.5 |
| 20260904010608 | 80 | 240 | 3.0 | 7.0 | 0.00 | 0.00 | 0.00 | 37 | 1011.4 |
| 20260904010105 | 80 | 223 | 3.0 | 8.0 | 0.00 | 0.00 | 0.00 | 37 | 1011.4 |
| 20260904005610 | 80 | 248 | 5.0 | 9.0 | 0.00 | 0.00 | 0.00 | 36 | 1011.4 |
| 20260904005103 | 80 | 269 | 5.0 | 9.0 | 0.00 | 0.00 | 0.00 | 35 | 1011.4 |
| 20260904004604 | 81 | 245 | 6.0 | 9.0 | 0.00 | 0.00 | 0.00 | 33 | 1011.4 |
| 20260904004103 | 82 | 264 | 5.0 | 12.0 | 0.00 | 0.00 | 0.00 | 32 | 1011.4 |
| 20260904002104 | 82 | 254 | 6.0 | 14.0 | 0.00 | 0.00 | 0.00 | 31 | 1011.3 |
| 20260904001604 | 84 | 256 | 7.0 | 14.0 | 0.00 | 0.00 | 0.00 | 30 | 1011.3 |
| 20260904001103 | 83 | 210 | 5.0 | 9.0 | 0.00 | 0.00 | 0.00 | 30 | 1011.3 |
| 20260904000604 | 83 | 238 | 6.0 | 12.0 | 0.00 | 0.00 | 0.00 | 30 | 1011.3 |
| 20260903235104 | 84 | 253 | 5.0 | 10.0 | 0.00 | 0.00 | 0.00 | 28 | 1011.2 |
| 20260903234604 | 84 | 281 | 6.0 | 10.0 | 0.00 | 0.00 | 0.00 | 28 | 1011.2 |
| 20260903234104 | 84 | 265 | 6.0 | 9.0 | 0.00 | 0.00 | 0.00 | 28 | 1011.3 |
| 20260903233604 | 84 | 249 | 3.0 | 9.0 | 0.00 | 0.00 | 0.00 | 26 | 1011.3 |
| 20260903233104 | 84 | 264 | 6.0 | 9.0 | 0.00 | 0.00 | 0.00 | 26 | 1011.3 |
| 20260903232604 | 85 | 237 | 5.0 | 10.0 | 0.00 | 0.00 | 0.00 | 25 | 1011.4 |
| 20260903232104 | 85 | 259 | 5.0 | 10.0 | 0.00 | 0.00 | 0.00 | 26 | 1011.3 |
| 20260903231603 | 84 | 258 | 6.0 | 10.0 | 0.00 | 0.00 | 0.00 | 26 | 1011.5 |
| 20260903231104 | 85 | 257 | 6.0 | 10.0 | 0.00 | 0.00 | 0.00 | 25 | 1011.6 |
| 20260903230609 | 85 | 265 | 6.0 | 10.0 | 0.00 | 0.00 | 0.00 | 24 | 1011.7 |
| 20260903230104 | 85 | 226 | 6.0 | 9.0 | 0.00 | 0.00 | 0.00 | 25 | 1011.6 |
| 20260903225611 | 85 | 236 | 5.0 | 12.0 | 0.00 | 0.00 | 0.00 | 24 | 1011.6 |
| 20260903225104 | 85 | 282 | 6.0 | 12.0 | 0.00 | 0.00 | 0.00 | 24 | 1011.6 |
| 20260903224604 | 85 | 276 | 4.0 | 13.0 | 0.00 | 0.00 | 0.00 | 25 | 1011.7 |
| 20260903224103 | 85 | 252 | 6.0 | 13.0 | 0.00 | 0.00 | 0.00 | 25 | 1011.7 |
| 20260903223604 | 85 | 263 | 7.0 | 10.0 | 0.00 | 0.00 | 0.00 | 24 | 1011.8 |
| 20260903223104 | 85 | 254 | 4.0 | 10.0 | 0.00 | 0.00 | 0.00 | 24 | 1011.8 |
| 20260903222104 | 85 | 284 | 4.0 | 10.0 | 0.00 | 0.00 | 0.00 | 24 | 1011.9 |
| 20260903221104 | 84 | 280 | 5.0 | 10.0 | 0.00 | 0.00 | 0.00 | 25 | 1011.9 |
| 20260903220603 | 84 | 260 | 6.0 | 12.0 | 0.00 | 0.00 | 0.00 | 24 | 1012.0 |
| 20260903220105 | 84 | 263 | 6.0 | 12.0 | 0.00 | 0.00 | 0.00 | 24 | 1012.1 |
| 20260903215104 | 84 | 269 | 6.0 | 12.0 | 0.00 | 0.00 | 0.00 | 25 | 1012.2 |
| 20260903214104 | 84 | 265 | 6.0 | 12.0 | 0.00 | 0.00 | 0.00 | 24 | 1012.4 |
| 20260903213604 | 84 | 241 | 5.0 | 12.0 | 0.00 | 0.00 | 0.00 | 23 | 1012.5 |
| 20260903212603 | 84 | 284 | 6.0 | 12.0 | 0.00 | 0.00 | 0.00 | 24 | 1012.5 |
| 20260903212104 | 84 | 283 | 6.0 | 13.0 | 0.00 | 0.00 | 0.00 | 24 | 1012.5 |
| 20260903211604 | 83 | 303 | 6.0 | 13.0 | 0.00 | 0.00 | 0.00 | 23 | 1012.5 |
| 20260903211104 | 84 | 257 | 7.0 | 13.0 | 0.00 | 0.00 | 0.00 | 23 | 1012.5 |
| 20260903210609 | 84 | 270 | 4.0 | 9.0 | 0.00 | 0.00 | 0.00 | 24 | 1012.5 |
| 20260903210104 | 83 | 284 | 5.0 | 9.0 | 0.00 | 0.00 | 0.00 | 25 | 1012.5 |
| 20260903205617 | 83 | 272 | 4.0 | 12.0 | 0.00 | 0.00 | 0.00 | 25 | 1012.6 |
| 20260903205103 | 83 | 275 | 5.0 | 12.0 | 0.00 | 0.00 | 0.00 | 24 | 1012.6 |
| 20260903204603 | 82 | 284 | 5.0 | 12.0 | 0.00 | 0.00 | 0.00 | 26 | 1012.6 |
| 20260903204104 | 83 | 275 | 5.0 | 10.0 | 0.00 | 0.00 | 0.00 | 25 | 1012.8 |
| 20260903203105 | 82 | 312 | 5.0 | 9.0 | 0.00 | 0.00 | 0.00 | 25 | 1012.8 |
| 20260903202604 | 82 | 259 | 3.0 | 9.0 | 0.00 | 0.00 | 0.00 | 27 | 1012.9 |
| 20260903201604 | 81 | 270 | 3.0 | 9.0 | 0.00 | 0.00 | 0.00 | 27 | 1013.0 |
| 20260903201104 | 82 | 274 | 3.0 | 9.0 | 0.00 | 0.00 | 0.00 | 26 | 1013.0 |
| 20260903200105 | 81 | 235 | 3.0 | 9.0 | 0.00 | 0.00 | 0.00 | 27 | 1013.0 |
| 20260903195604 | 81 | 272 | 3.0 | 9.0 | 0.00 | 0.00 | 0.00 | 26 | 1013.0 |
| 20260903195104 | 81 | 298 | 3.0 | 9.0 | 0.00 | 0.00 | 0.00 | 29 | 1013.0 |
| 20260903194604 | 80 | 288 | 5.0 | 9.0 | 0.00 | 0.00 | 0.00 | 28 | 1013.1 |
| 20260903194103 | 80 | 284 | 2.0 | 8.0 | 0.00 | 0.00 | 0.00 | 26 | 1013.2 |
| 20260903193604 | 80 | 269 | 3.0 | 7.0 | 0.00 | 0.00 | 0.00 | 28 | 1013.3 |
| 20260903193104 | 80 | 299 | 3.0 | 7.0 | 0.00 | 0.00 | 0.00 | 28 | 1013.5 |
| 20260903192604 | 80 | 254 | 5.0 | 7.0 | 0.00 | 0.00 | 0.00 | 28 | 1013.5 |
| 20260903192104 | 79 | 311 | 2.0 | 7.0 | 0.00 | 0.00 | 0.00 | 28 | 1013.6 |
| 20260903191604 | 79 | 303 | 3.0 | 7.0 | 0.00 | 0.00 | 0.00 | 29 | 1013.6 |
| 20260903191104 | 79 | 286 | 2.0 | 7.0 | 0.00 | 0.00 | 0.00 | 28 | 1013.6 |
| 20260903190609 | 79 | 252 | 3.0 | 7.0 | 0.00 | 0.00 | 0.00 | 29 | 1013.7 |
| 20260903190104 | 78 | 291 | 1.0 | 9.0 | 0.00 | 0.00 | 0.00 | 28 | 1013.9 |
| 20260903185609 | 78 | 265 | 4.0 | 9.0 | 0.00 | 0.00 | 0.00 | 29 | 1014.1 |
| 20260903184604 | 77 | 275 | 2.0 | 7.0 | 0.00 | 0.00 | 0.00 | 31 | 1014.2 |
| 20260903184104 | 77 | 247 | 3.0 | 7.0 | 0.00 | 0.00 | 0.00 | 33 | 1014.2 |
| 20260903183604 | 76 | 280 | 1.0 | 6.0 | 0.00 | 0.00 | 0.00 | 32 | 1014.2 |
| 20260903183105 | 76 | 281 | 2.0 | 5.0 | 0.00 | 0.00 | 0.00 | 35 | 1014.2 |
| 20260903182604 | 76 | 270 | 2.0 | 7.0 | 0.00 | 0.00 | 0.00 | 35 | 1014.2 |
| 20260903182104 | 76 | 268 | 4.0 | 7.0 | 0.00 | 0.00 | 0.00 | 36 | 1014.2 |
| 20260903181604 | 75 | 285 | 1.0 | 5.0 | 0.00 | 0.00 | 0.00 | 37 | 1014.3 |
| 20260903181104 | 75 | 269 | 2.0 | 6.0 | 0.00 | 0.00 | 0.00 | 37 | 1014.3 |
| 20260903180604 | 75 | 286 | 2.0 | 6.0 | 0.00 | 0.00 | 0.00 | 38 | 1014.3 |
| 20260903180105 | 74 | 308 | 3.0 | 6.0 | 0.00 | 0.00 | 0.00 | 39 | 1014.2 |
| 20260903175604 | 74 | 293 | 2.0 | 6.0 | 0.00 | 0.00 | 0.00 | 39 | 1014.4 |
| 20260903175104 | 74 | 274 | 2.0 | 6.0 | 0.00 | 0.00 | 0.00 | 40 | 1014.4 |
| 20260903174604 | 74 | 270 | 2.0 | 6.0 | 0.00 | 0.00 | 0.00 | 39 | 1014.5 |
| 20260903174104 | 73 | 294 | 3.0 | 6.0 | 0.00 | 0.00 | 0.00 | 39 | 1014.5 |
| 20260903173604 | 73 | 283 | 2.0 | 6.0 | 0.00 | 0.00 | 0.00 | 39 | 1014.5 |
| 20260903173104 | 72 | 290 | 1.0 | 6.0 | 0.00 | 0.00 | 0.00 | 40 | 1014.5 |